Preview of NWS' New Version of Forecast
This preview is not operational and should not be used for support decisions.

Regional Weather Roundup (RWR)

Issued by National Weather Service (NWS)

                            
000
ASUS42 KTBW 211117
RWRFL 
FLORIDA REGIONAL WEATHER ROUNDUP
NATIONAL WEATHER SERVICE TAMPA BAY RUSKIN FL
600 AM EST THU FEB 21 2019

NOTE: "FAIR" INDICATES FEW OR NO CLOUDS BELOW 12,000 FEET WITH NO
SIGNIFICANT WEATHER AND/OR OBSTRUCTIONS TO VISIBILITY.

FLZ001>010-012>015-112-114-115-211200-
PANHANDLE FLORIDA
  
CITY           SKY/WX    TMP DP  RH WIND       PRES   REMARKS
PENSACOLA      FOG       70  68  93 S5        30.00S VSB 1/4          
PENSACOLA NAS  FOG       68  68 100 S5        30.00R VSB 1/4          
MILTON NAS     FOG       69  69 100 CALM      30.01  VSB 1/4          
CRESTVIEW      CLOUDY    69  68  96 SE3       30.03S FOG              
DUKE FIELD     FOG       68  68 100 S5        30.02R VSB 5/8          
VALPARAISO     LGT RAIN  68  68 100 SE5       30.01S VSB 3/8          
MARY ESTHER    FOG       68  68 100 SE5       30.00  VSB 3/8          
PANAMA CITY    FOG       69  68  96 E5        30.03R VSB 3/4          
TYNDALL AFB    FOG       68  68 100 S10       30.03R VSB 3/8          
APALACHICOLA   FOG       66  65  96 S5        30.04R VSB 1/4          

STATION/POSITION SKY/WX   TEMP    WIND        PRES    WAVE   SWELL
                          AIR SEA DIR/SP/G            HT/PER HT/PER
                          (F)     (DEG/KT/KT) (MB)    (FT/S) (FT/S)
30.1N   87.6W              66     130/  4/  6   N/A     3/ 7   3/ 7
29.2N   88.2W                      90/  4/  6 1015.4S   4/ 8   3/ 8
PANAMA CITY BEAC           65 64  120/  7/  8 1017.3R
TOWER C                    69     170/ 16/ 16 1017.4R

$$
FLZ011-016>038-118-127-128-134-139-239-211200-
NORTH FLORIDA
  
CITY           SKY/WX    TMP DP  RH WIND       PRES   REMARKS
MARIANNA       CLOUDY    69  69 100 CALM      30.04R FOG              
TALLAHASSEE    CLOUDY    70  69  97 VRB3      30.07R                  
PERRY          CLOUDY    68  67  97 S3        30.09R FOG              
LIVE OAK       PTCLDY    66  66 100 CALM      30.08R                  
CROSS CITY     FOG       61  61 100 CALM      30.09R VSB 1/2          
LAKE CITY      FAIR      61  61 100 S5        30.09S                  
GAINESVILLE    MOCLDY    65  63  93 CALM      30.12R                  
WILLISTON        N/A    N/A N/A N/A MISG        N/A                   
PALATKA        CLOUDY    68  68 100 S5        30.11R                  
MAYPORT NAS    MOCLDY    68  67  96 S7        30.10R FOG              
JACKSONVILLE   FAIR      68  67  96 CALM      30.09R FOG              
JAX NAS        MOCLDY    70  70 100 S6        30.11R FOG              
JAX CECIL      FOG       66  66 100 CALM      30.10R VSB<1/4          
FERNANDINA BEA CLOUDY    69  68  96 S7        30.09S                  
ST AUGUSTINE   CLOUDY    67  66  97 CALM      30.12R                  
PALM COAST     FOG       64  63  94 CALM      30.11R VSB 1/2          

STATION/POSITION SKY/WX   TEMP    WIND        PRES    WAVE   SWELL
                          AIR SEA DIR/SP/G            HT/PER HT/PER
                          (F)     (DEG/KT/KT) (MB)    (FT/S) (FT/S)
SHELL POINT      NOT AVBL
KEATON BEACH               69     150/  7/  8 1018.6R
CEDAR KEY                  71     110/  5/  5 1018.9R
FERNANDINA                 70 63  160/  4/  5 1019.7R
30.7N   81.3W                 59                N/A     4/ 8
MAYPORT                    69 63  160/  3/  5 1019.3R
31.4N   80.9W              61 58  190/  6/  8 1018.5R   5/ 8   5/ 8
ST AUGUSTINE               62 61  180/  6/  7 1019.7R

$$
FLZ040-043>046-052-053-057-058-063-144-211200-
INTERIOR CENTRAL FLORIDA
  
CITY           SKY/WX    TMP DP  RH WIND       PRES   REMARKS
OCALA          FOG       64  64 100 CALM      30.11R VSB 1            
LEESBURG       FAIR      69  67  93 S3        30.11R                  
SANFORD        FOG       65  65 100 CALM      30.11R VSB 1/4          
ORLANDO EXEC   FOG       66  65  96 E3        30.11R VSB 1/2          
ORLANDO INTL   FAIR      66  66 100 CALM      30.11R                  
KISSIMMEE      FAIR      65  65 100 CALM      30.12R                  
WINTER HAVEN   FOG       69  67  93 CALM      30.12R VSB 3/4          
LAKELAND       MOCLDY    64  64 100 CALM      30.10R FOG              
BARTOW         FOG       68  66  94 CALM      30.10R VSB<1/4          
SEBRING        FAIR      64  63  99 CALM      30.10R                  
OKEECHOBEE       N/A     68  68 100 CALM      30.09R                  

$$
FLZ041-047-054-059-064-141-147-211200-
EAST CENTRAL FLORIDA
  
CITY           SKY/WX    TMP DP  RH WIND       PRES   REMARKS
DAYTONA BEACH  FOG       64  64 100 CALM      30.12R VSB 1/2          
DELAND         CLOUDY    64  63  94 CALM      30.11R FOG              
JFK SPACE CTR  FAIR     N/A N/A N/A CALM        N/A                   
CAPE CANAVERAL FAIR      64  64 100 CALM      30.10R FOG              
PATRICK AFB    FAIR      70  70 100 S12       30.10R                  
MELBOURNE      FAIR      73  69  87 SE9       30.10R                  
VERO BEACH     FAIR      71  68  90 SE6       30.10R                  
FT PIERCE      FAIR      72  67  84 S6        30.10R                  
STUART         FAIR      72  68  88 SE5       30.11S                  

STATION/POSITION SKY/WX   TEMP    WIND        PRES    WAVE   SWELL
                          AIR SEA DIR/SP/G            HT/PER HT/PER
                          (F)     (DEG/KT/KT) (MB)    (FT/S) (FT/S)
28.5N   80.2W              70     150/ 12/ 14 1019.8R   5/ 8   5/ 8
28.9N   78.5W              76 78  150/ 16/ 21 1021.0F   7/ 8   3/ 9
TRIDENT PIER               67 69  130/  2/  2 1020.4R
28.4N   80.5W                 67                N/A     3/ 8

$$
FLZ050-056-061-142-242-148-248-149-249-151-251-155-255-
160-260-211200-
WEST CENTRAL FLORIDA
  
CITY           SKY/WX    TMP DP  RH WIND       PRES   REMARKS
CRYSTAL RIVER  FAIR      64  64 100 CALM      30.09S                  
INVERNESS      FAIR      64  64 100 CALM      30.11R FOG              
BROOKSVILLE    FAIR      68  65  90 SE7       30.10R                  
CLEARWATER AIR FAIR      68  68 100 SE6       30.08R                  
ST PETE CLEARW FAIR      68  65  90 SE8       30.08R                  
TAMPA INTL     FAIR      70  65  84 SE6       30.09R                  
TAMPA EXEC     FAIR      64  63  94 CALM      30.10R FOG              
PLANT CITY     FAIR      68  66  94 CALM      30.12R FOG              
MACDILL AFB    FAIR      67  64  90 E6        30.08R                  
PETER O KNIGHT CLOUDY   N/A N/A N/A CALM      30.10R                  
ST PETERSBURG  FAIR      70  67  90 E6        30.07R                  
SARASOTA       FAIR      67  65  93 SE7       30.06R                  
VENICE         CLOUDY    66  66 100 E5        30.09R                  

STATION/POSITION SKY/WX   TEMP    WIND        PRES    WAVE   SWELL
                          AIR SEA DIR/SP/G            HT/PER HT/PER
                          (F)     (DEG/KT/KT) (MB)    (FT/S) (FT/S)
27.3N   84.2W                 72                N/A     3/ 5
CLEARWATER BEACH           71 71  120/  7/ 10 1018.7R
MIDDLE TAMPA BAY           67     130/  7/  8 1018.8R
VENICE                     67 70   70/  6/  7   N/A

$$
FLZ066-069-070-075>078-162-262-165-265-211200-
SOUTHWEST FLORIDA AND KEYS
  
CITY           SKY/WX    TMP DP  RH WIND       PRES   REMARKS
PUNTA GORDA    FAIR      66  65  96 SE3       30.09R                  
FT MYERS       FAIR      69  68  96 SE5       30.07R                  
SOUTHWEST INTL FAIR      68  67  96 E6        30.08R                  
NAPLES         FAIR      69  68  96 E5        30.07R                  
MARCO ISLAND   FAIR     N/A N/A N/A E6        30.08R                  
IMMOKALEE      MOCLDY    68  68 100 E3        30.07R                  
MARATHON       FAIR      80  71  74 SE10      30.06R                  
KEY WEST NAS   FAIR      79  71  76 SE13      30.05R                  
KEY WEST INTL  FAIR      79  72  79 SE14      30.05R                  

STATION/POSITION SKY/WX   TEMP    WIND        PRES    WAVE   SWELL
                          AIR SEA DIR/SP/G            HT/PER HT/PER
                          (F)     (DEG/KT/KT) (MB)    (FT/S) (FT/S)
NAPLES                     71 73   80/  4/  5 1018.2R
26.0N   85.6W              78 79  140/ 14/ 17 1016.2R   4/ 7
DRY TORTUGAS               78     150/ 13/ 15 1016.8R
SAND KEY                   77                 1017.2R
SOMBRERO KEY               78                 1017.3R
LONG KEY                   77 78  130/ 14/ 16 1017.5R
MOLASSES REEF              78 78  120/ 15/ 18 1018.5R

$$
FLZ067-068-071>074-168-172>174-211200-
SOUTHEAST FLORIDA 
  
CITY           SKY/WX    TMP DP  RH WIND       PRES   REMARKS
W PALM BEACH   MOCLDY    76  68  76 SE17      30.10R                  
FT LAUDER-EXEC MOCLDY    76  73  91 SE8       30.09R                  
FT LAUDERDALE  LGT RAIN  77  72  84 SE17      30.08R                  
POMPANO BEACH  MOCLDY    77  70  79 SE15      30.09R                  
PEMBROKE PINES FAIR      76  68  76 SE10      30.10R                  
OPA LOCKA      FAIR      76  68  76 SE12      30.09R                  
MIAMI          FAIR      76  71  85 SE12      30.09R                  
WEST KENDALL   FAIR      76  70  82 SE8       30.08R                  
HOMESTEAD      FAIR      76  70  82 SE7       30.08R                  

STATION/POSITION SKY/WX   TEMP    WIND        PRES    WAVE   SWELL
                          AIR SEA DIR/SP/G            HT/PER HT/PER
                          (F)     (DEG/KT/KT) (MB)    (FT/S) (FT/S)
PORT EVERGLADES            77     140/ 15/ 18 1018.8R
VIRGINIA KEY               77 78  110/ 11/ 14 1018.1R
LAKE WORTH                 76 77  140/ 19/ 21 1020.2R
FOWEY ROCKS                77 77  130/ 19/ 21 1019.1R
SETTLEMENT POINT           74     130/  7/  8 1020.0R

$$